Flag for Canada Weather past 2 weeks in Halifax, Nova Scotia, Canada

Now
32 °F

Low clouds.


Feels Like: 20 °F
Forecast: 33 / 44 °F
Wind: 18 mph from North

Location: Halifax International Airport


UV Index: 3 (Moderate)

Visibility: 15 mi


Pressure: 29.55 "Hg

Humidity: 93%

Dew point: 30 °F

Location of HalifaxLocation

Historic Weather in Halifax

°F

Halifax temperature yesterday

Maximum temperature yesterday: 39 °F (at 12:00 AM)
Minimum temperature yesterday: 32 °F (at 6:00 PM)
Average temperature yesterday: 36 °F

Past Weeks' High & Low Weather Summary

 TemperatureHumidityPressure
High64 °F (Apr 14, 4:00 PM)100% (Apr 12, 6:00 AM)30.80 "Hg (Apr 12, 6:00 AM)
Low21 °F (Apr 18, 6:00 AM)23% (Apr 10, 5:00 PM)29.26 "Hg (Apr 24, 9:00 AM)
Average42 °F78%30.06 "Hg
* Reported Apr 10 2:00 AM — Apr 25 2:00 AM, Halifax, Weather by CustomWeather, © 2014

Note: Actual official high and low records may vary slightly from our data, if they occured in-between our weather recording intervals... More about our weather records

Advertising

Historic Weather Conditions — Data for Previous 24 hours

 ConditionsComfort  
Time TempWeatherWind HumidityBarometerVisibility
2:00 AM
Apr 25
32 °FLow clouds.18 mph93%29.53 "Hg12 mi
1:00 AM32 °FMostly cloudy.21 mph100%29.53 "Hg10 mi
12:00 AM32 °FIce fog.22 mph100%29.54 "Hg6 mi
11:00 PM
Apr 24
32 °FLight rain. Ice fog.20 mph100%29.53 "Hg2 mi
10:00 PM32 °FLight rain. Ice fog.18 mph100%29.51 "Hg2 mi
9:00 PM32 °FLight rain. Ice fog.20 mph100%29.49 "Hg2 mi
8:00 PM32 °FLight rain. Ice fog.17 mph100%29.45 "Hg3 mi
7:00 PM32 °FSleet. Ice fog.15 mph100%29.42 "Hg2 mi
6:00 PM32 °FLight snow. Dense fog.16 mph100%29.40 "Hg1 mi
5:00 PM34 °FSleet. Fog.10 mph100%29.38 "Hg1 mi
4:00 PM36 °FSprinkles. Fog.12 mph93%29.36 "Hg2 mi
3:00 PM36 °FSprinkles. Sandstorm.13 mph93%29.35 "Hg4 mi
2:00 PM37 °FRain. Fog.13 mph87%29.33 "Hg4 mi
1:00 PM37 °FRain. Fog.15 mph93%29.31 "Hg4 mi
12:00 PM37 °FRain. Fog.13 mph93%29.30 "Hg4 mi
11:00 AM39 °FLight rain. Fog.9 mph93%29.29 "Hg4 mi
10:03 AM39 °FLight rain. Fog.9 mph93%29.28 "Hg1 mi
9:00 AM39 °FLight rain. Fog.14 mph93%29.26 "Hg5 mi
8:00 AM39 °FLight rain. Fog.13 mph93%29.27 "Hg4 mi
7:00 AM39 °FLight rain. Fog.10 mph93%29.27 "Hg4 mi
6:00 AM37 °FLight rain. Fog.16 mph93%29.28 "Hg4 mi
5:00 AM37 °FLight rain. Fog.14 mph93%29.29 "Hg6 mi
4:00 AM37 °FDrizzle. Fog.16 mph93%29.33 "Hg3 mi
3:00 AM37 °FDrizzle. Fog.16 mph93%29.35 "Hg3 mi
Weather by CustomWeather, © 2014

See weather overview